sat.trackr.live / text

‹ back to catalog

STARLINK-3150

NORAD 49452 · 2021-104AW

PAYLOAD ACTIVE UNKNOWN

§ Identity

Operator
Country
US
Launch date
2021-11-13
Launch site
AFETR
Launch vehicle
Mass (kg)
RCS (m²)

Purposes: comms

External: N2YO · Heavens-Above · Gunter

§ Orbital elements

Epoch: 2026-09-11T18:45:12.712032Z

Period
94.01 min
Inclination
53.1603°
Eccentricity
0.0001024
Mean motion
15.31706241 rev/d
Perigee alt
470.0 km
Apogee alt
471.4 km
Semi-major
6,848.9 km
B*
5.2587e-5
RAAN
92.3999°
Arg perigee
89.5267°
Mean anomaly
270.5852°
Rev number
26,702

§ Raw data

STARLINK-31501 49452U 21104AW  26254.78139713  .00001267  00000+0  52587-4 0  99962 49452  53.1603  92.3999 0001024  89.5267 270.5852 15.31706241267025

JSON: /api/v1/satellites/49452 · /tle

For live sub-satellite position, see the globe view (requires WebGL).

§ Visibility from observer

Set your observer location to see the next 7 days of passes ≥ 10°. The values pass through the URL so the page stays shareable.

No JS? Fill the form by hand. The geolocation button needs JavaScript.